Location: Unspecified
(42.9300°N, 71.1866°W)
Time: 11:41:56
(UTC-04:00)

Okean 3 - Visible Passes

Search period start: 26 April 2015 00:00
Search period end: 06 May 2015 00:00
Orbit: 581 x 605 km, 82.5° (Epoch: 26 April)

Date Brightness Start Highest point End Pass type
(mag) Time Alt. Az. Time Alt. Az. Time Alt. Az.
26 Apr 3.5 21:40:10 26° SSW 21:42:27 79° W 21:46:44 10° N visible
27 Apr 5.3 20:12:50 10° ESE 20:14:48 13° E 20:16:59 10° NE visible
27 Apr 4.3 21:48:24 15° SSW 21:51:45 50° WNW 21:55:54 10° N visible
28 Apr 4.8 20:20:51 10° SE 20:23:54 20° E 20:27:06 10° NE visible
28 Apr 5.1 21:57:14 10° SW 22:01:04 33° WNW 22:04:55 10° N visible
29 Apr 4.3 20:29:21 10° SSE 20:33:01 30° E 20:36:48 10° NNE visible
29 Apr 5.8 22:07:05 10° SW 22:10:27 22° WNW 22:13:46 10° NNW visible
30 Apr 3.7 20:38:09 10° SSE 20:42:11 47° E 20:46:19 10° NNE visible
30 Apr 6.3 22:17:19 10° WSW 22:19:53 15° WNW 22:22:20 10° NNW visible
01 May 3.4 20:47:10 10° S 20:51:22 75° E 20:55:39 10° NNE visible
01 May 6.8 22:28:57 10° WNW 22:29:24 10° WNW 22:29:35 10° WNW visible
02 May 3.8 20:56:23 10° SSW 21:00:36 71° W 21:04:53 10° N visible
03 May 4.6 21:05:47 10° SSW 21:09:52 45° WNW 21:14:00 10° N visible
04 May 5.5 21:15:25 10° SW 21:19:12 30° WNW 21:22:58 10° NNW visible
05 May 6.2 21:25:20 10° WSW 21:28:35 20° WNW 21:31:45 10° NNW visible
